This demonstration page uses our WeatherBlox Daily Observations layout. Learn more.

Hourly Observations for November 6, 2015

Temp ( °F °C ) Dew Point ( °F °C ) Humidity (%) Winds ( mph kmh ) Pressure ( in mb ) Visibility ( mi km ) Precip ( " mm )
12:15 am 00:15 Clear 39 4 36 2 87 87 W 8 13 30.09 1019 10 16.09344 0 0
12:35 am 00:35 Clear 39 4 36 2 87 87 W 8 13 30.09 1019 10 16.09344 0 0
12:55 am 00:55 Clear 37 3 34 1 87 87 W 8 13 30.15 1021 10 16.09344 0 0
1:15 am 01:15 Clear 37 3 34 1 87 87 W 8 13 30.15 1021 10 16.09344 0 0
1:35 am 01:35 Clear 37 3 34 1 87 87 W 8 13 30.15 1021 10 16.09344 0 0
1:55 am 01:55 Clear 37 3 34 1 87 87 W 8 13 30.15 1021 10 16.09344 0 0
2:15 am 02:15 Clear 37 3 34 1 87 87 W 6 9 30.15 1021 10 16.09344 0 0
2:35 am 02:35 Clear 36 2 32 0 87 87 W 6 9 30.15 1021 10 16.09344 0 0
2:55 am 02:55 Clear 36 2 32 0 87 87 W 5 7 30.15 1021 10 16.09344 0 0
3:15 am 03:15 Clear 36 2 32 0 87 87 W 7 11 30.15 1021 10 16.09344 0 0
3:35 am 03:35 Clear 34 1 32 0 93 93 W 6 9 30.15 1021 10 16.09344 0 0
3:55 am 03:55 Clear 36 2 32 0 87 87 W 7 11 30.15 1021 10 16.09344 0 0
4:15 am 04:15 Clear 34 1 30 -1 87 87 W 6 9 30.15 1021 10 16.09344 0 0
4:35 am 04:35 Clear 36 2 32 0 87 87 W 7 11 30.18 1022 10 16.09344 0 0
4:55 am 04:55 Clear 34 1 32 0 93 93 W 7 11 30.18 1022 10 16.09344 0 0
5:15 am 05:15 Clear 34 1 32 0 93 93 W 6 9 30.18 1022 10 16.09344 0 0
5:35 am 05:35 Clear 34 1 30 -1 87 87 W 5 7 30.18 1022 10 16.09344 0 0
5:55 am 05:55 Clear 36 2 32 0 87 87 WNW 5 7 30.18 1022 10 16.09344 0 0
6:15 am 06:15 Clear 36 2 32 0 87 87 WNW 3 6 30.18 1022 10 16.09344 0 0
6:35 am 06:35 Clear 34 1 30 -1 87 87 W 6 9 30.21 1023 10 16.09344 0 0
6:55 am 06:55 Clear 34 1 30 -1 87 87 WNW 3 6 30.21 1023 10 16.09344 0 0
7:15 am 07:15 Sunny 34 1 30 -1 87 87 NW 5 7 30.21 1023 10 16.09344 0 0
7:35 am 07:35 Sunny 34 1 30 -1 87 87 NW 5 7 30.21 1023 10 16.09344 0 0
7:55 am 07:55 Sunny 34 1 32 0 93 93 NW 3 6 30.21 1023 10 16.09344 0 0
8:15 am 08:15 Partly Cloudy 36 2 32 0 87 87 NW 3 6 30.21 1023 10 16.09344 0 0
8:35 am 08:35 Mostly Cloudy 36 2 32 0 87 87 NW 5 7 30.24 1024 10 16.09344 0 0
8:55 am 08:55 Partly Cloudy 37 3 34 1 87 87 NW 3 6 30.24 1024 10 16.09344 0 0
9:15 am 09:15 Mostly Cloudy 39 4 34 1 81 81 Calm 30.24 1024 10 16.09344 0 0
9:35 am 09:35 Cloudy 41 5 36 2 81 81 Calm 30.24 1024 10 16.09344 0 0
9:55 am 09:55 Cloudy 41 5 36 2 81 81 Calm 30.24 1024 10 16.09344 0 0
10:15 am 10:15 Cloudy 41 5 36 2 81 81 Calm 30.24 1024 10 16.09344 0 0
10:35 am 10:35 Cloudy 43 6 36 2 76 76 Calm 30.24 1024 10 16.09344 0 0
10:55 am 10:55 Cloudy 43 6 36 2 76 76 Calm 30.24 1024 10 16.09344 0 0
11:15 am 11:15 Cloudy 45 7 34 1 66 66 Calm 30.24 1024 10 16.09344 0 0
11:35 am 11:35 Cloudy 45 7 34 1 66 66 N 3 6 30.24 1024 10 16.09344 0 0
11:55 am 11:55 Cloudy 45 7 34 1 66 66 N 6 9 30.24 1024 10 16.09344 0 0
12:15 pm 12:15 Cloudy 45 7 34 1 66 66 NE 5 7 30.24 1024 10 16.09344 0 0
12:35 pm 12:35 Cloudy 46 8 34 1 62 62 N 5 7 30.21 1023 10 16.09344 0 0
12:55 pm 12:55 Cloudy 46 8 36 2 66 66 N 7 11 30.21 1023 10 16.09344 0 0
1:15 pm 13:15 Cloudy with Light Drizzle 46 8 34 1 62 62 NNE 3 6 30.21 1023 10 16.09344 0 0
1:35 pm 13:35 Cloudy 48 9 34 1 58 58 N 6 9 30.21 1023 10 16.09344 0 0
1:55 pm 13:55 Mostly Cloudy 48 9 34 1 58 58 N 6 9 30.21 1023 10 16.09344 0 0
2:15 pm 14:15 Partly Cloudy 50 10 34 1 54 54 NNW 9 15 30.21 1023 10 16.09344 0 0
2:35 pm 14:35 Partly Cloudy 50 10 32 0 50 50 NNW 8 13 30.21 1023 10 16.09344 0 0
2:55 pm 14:55 Mostly Cloudy 46 8 34 1 62 62 NNW 8 13 30.21 1023 10 16.09344 0 0
3:15 pm 15:15 Cloudy with Light Rain 46 8 34 1 62 62 NNW 10 17 30.21 1023 10 16.09344 0 0
3:35 pm 15:35 Mostly Cloudy 46 8 36 2 66 66 NNW 9 15 30.21 1023 10 16.09344 0 0
3:55 pm 15:55 Mostly Cloudy 46 8 36 2 66 66 NNW 7 11 30.21 1023 10 16.09344 0 0
4:15 pm 16:15 Cloudy 45 7 36 2 71 71 N 3 6 30.24 1024 10 16.09344 0 0
4:35 pm 16:35 Mostly Cloudy 45 7 34 1 66 66 NNW 5 7 30.24 1024 10 16.09344 0 0
4:55 pm 16:55 Cloudy 45 7 36 2 71 71 NNW 5 7 30.24 1024 10 16.09344 0 0
5:15 pm 17:15 Cloudy 45 7 36 2 71 71 NNW 5 7 30.24 1024 10 16.09344 0 0
5:35 pm 17:35 Cloudy 45 7 36 2 71 71 NNW 3 6 30.27 1025 10 16.09344 0 0
5:55 pm 17:55 Cloudy 43 6 36 2 76 76 Calm 30.27 1025 10 16.09344 0 0
6:15 pm 18:15 Cloudy 43 6 36 2 76 76 Calm 30.27 1025 10 16.09344 0 0
6:35 pm 18:35 Cloudy 43 6 36 2 76 76 WNW 3 6 30.3 1026 10 16.09344 0 0
6:55 pm 18:55 Cloudy 43 6 36 2 76 76 W 5 7 30.3 1026 10 16.09344 0 0
7:15 pm 19:15 Cloudy 43 6 36 2 76 76 WNW 5 7 30.33 1027 10 16.09344 0 0
7:35 pm 19:35 Cloudy with Drizzle 43 6 36 2 76 76 Calm 30.33 1027 10 16.09344 0 0
7:55 pm 19:55 Cloudy with Light Rain 43 6 36 2 76 76 Calm 30.33 1027 10 16.09344 0 0
8:15 pm 20:15 Mostly Cloudy 43 6 36 2 76 76 Calm 30.33 1027 10 16.09344 0 0
8:35 pm 20:35 Mostly Cloudy 41 5 34 1 76 76 W 3 6 30.36 1028 10 16.09344 0 0
8:55 pm 20:55 Mostly Cloudy 39 4 34 1 81 81 W 5 7 30.36 1028 10 16.09344 0 0
9:15 pm 21:15 Partly Cloudy 37 3 34 1 87 87 W 6 9 30.36 1028 10 16.09344 0 0
9:35 pm 21:35 Clear 37 3 34 1 87 87 W 6 9 30.36 1028 10 16.09344 0 0
9:55 pm 21:55 Clear 37 3 34 1 87 87 W 5 7 30.39 1029 10 16.09344 0 0
10:15 pm 22:15 Clear 37 3 32 0 81 81 W 7 11 30.39 1029 10 16.09344 0 0
10:35 pm 22:35 Clear 36 2 32 0 87 87 W 6 9 30.42 1030 10 16.09344 0 0
10:55 pm 22:55 Clear 36 2 32 0 87 87 W 5 7 30.42 1030 10 16.09344 0 0
11:15 pm 23:15 Clear 36 2 32 0 87 87 W 6 9 30.42 1030 10 16.09344 0 0
11:35 pm 23:35 Clear 36 2 32 0 87 87 W 5 7 30.42 1030 10 16.09344 0 0
11:55 pm 23:55 Clear 34 1 32 0 93 93 WSW 5 7 30.42 1030 10 16.09344 0 0

Powered by AerisWeather